Temp
12 13 13 13 14 14 14 14 14 14 14 14 14 14 15 14 15 15 14 14 12 13 12 13 13 13 13 12 13 15 15 15 16 16 15 15 15 15 14 14 14 14 14 14 14 13 14
12 12 13 13 14 14 14 14 13 13 13 13 14 14 14 14 15 15 15 14 13 14 13 14 14 14 14 12 15 15 15 15 15 15 15 15 14 14 14 13 14 13 13 13 13 14 14
12 12 12 13 13 14 14 14 14 14 14 14 14 14 14 14 15 14 15 14 14 14 14 15 14 15 13 13 14 15 15 15 15 15 15 15 15 14 13 13 13 13 12 12 13 12 11
13 13 13 13 13 13 14 14 14 14 14 14 14 14 14 15 15 14 15 15 15 14 14 14 14 15 12 14 15 15 15 16 15 15 15 15 15 14 13 12 12 12 11 11 11 9 10
13 13 13 13 13 13 14 14 14 14 14 15 15 14 14 15 15 15 16 15 15 14 14 14 15 14 13 15 14 14 14 13 15 15 15 15 14 11 10 9 9 8 9 9 11 8 8
12 13 13 13 13 13 14 14 14 14 14 14 14 14 14 14 15 15 15 15 15 15 15 15 15 13 13 12 13 13 14 14 14 13 12 12 9 7 5 6 7 5 6 7 7 6 7
13 13 13 13 13 13 14 14 13 13 14 14 14 14 14 13 14 15 15 15 12 11 13 12 12 12 13 12 12 11 10 13 12 10 9 9 6 4 4 5 6 6 5 4 5 6 6
12 12 12 13 13 13 13 14 13 14 14 14 14 14 14 13 14 15 14 8 8 10 11 13 13 13 13 12 9 9 9 10 9 8 7 6 4 6 6 5 5 4 4 3 5 5 6
12 12 12 12 13 13 13 13 13 13 13 14 14 14 14 14 14 13 10 8 8 9 10 13 12 11 10 9 7 6 7 8 7 6 5 5 5 6 5 4 4 4 3 3 3 4 5
11 12 12 12 12 13 13 13 13 13 13 14 14 14 14 14 13 10 9 8 9 9 9 11 11 10 10 8 6 7 7 7 5 4 6 4 5 4 4 4 3 4 4 3 4 3 2
11 12 12 12 12 13 13 13 13 13 13 14 14 14 13 13 12 10 9 9 9 9 11 11 10 11 9 7 7 4 6 6 4 4 5 3 3 4 3 3 3 3 4 3 3 2 2
11 11 11 12 12 12 13 13 13 13 13 14 14 13 13 12 11 10 9 9 9 11 10 9 9 7 7 6 6 4 4 5 5 4 3 4 4 3 3 3 3 3 2 3 3 2 -2
11 11 11 11 12 12 13 13 13 13 14 14 14 13 12 11 9 9 9 8 10 10 9 7 6 6 5 4 4 4 3 1 1 1 1 3 3 3 3 3 3 3 1 -1 -2 -3 1
10 11 11 11 11 12 13 13 13 13 14 14 14 13 12 10 10 9 8 10 13 8 6 6 6 6 4 3 3 2 2 0 1 0 -0 -0 0 2 3 2 2 2 1 -2 -7 -3 -3
10 10 11 11 11 12 12 12 12 13 13 14 13 13 12 11 11 9 8 6 6 5 5 5 5 4 3 4 3 2 1 0 0 -1 0 -1 0 2 3 2 2 1 0 1 -1 -2 -2
10 10 10 11 11 11 12 12 12 13 13 13 13 12 11 11 11 10 5 5 5 5 5 5 4 3 2 1 1 1 0 1 2 1 1 0 -2 2 2 2 2 1 1 -2 0 -3 -1
10 10 10 10 11 11 11 12 12 13 13 13 12 8 11 12 11 4 4 4 4 4 5 4 3 2 2 1 1 1 0 1 1 1 1 1 -1 -0 1 -0 -1 -1 -2 -1 -1 -1 -5
10 10 10 10 10 11 11 11 12 13 13 13 9 10 11 11 5 1 3 5 5 3 3 3 3 2 2 1 1 1 1 1 1 1 0 1 -1 -3 -1 0 -1 -2 -3 -3 -2 -4 -2
9 9 9 10 10 10 11 11 12 12 13 11 5 4 11 10 6 2 4 3 3 4 2 3 2 2 2 2 1 1 1 2 1 2 1 -0 -3 -5 -2 -0 -4 -4 -2 -2 -2 -2 -4
9 9 9 10 10 10 10 11 12 12 12 11 4 7 3 1 0 2 3 3 3 3 2 2 2 1 1 1 0 1 0 2 1 1 4 1 -1 -3 -4 -3 -2 -2 -3 -3 -4 -5 -7
8 9 9 9 9 10 10 11 12 12 12 11 1 3 3 3 2 1 2 3 2 2 2 1 1 1 0 -0 0 -0 -0 -0 1 2 -1 -1 -2 -2 -2 -4 -2 -3 -3 -3 -4 -5 -5
8 9 9 9 9 9 10 10 11 12 12 9 4 3 -0 1 2 1 1 1 2 2 2 1 1 0 0 -0 -0 -2 -1 -1 -0 -1 -1 -2 -2 -2 -3 -2 -2 -4 -4 -3 -4 -4 -5
7 8 8 8 8 9 9 10 11 12 12 6 3 3 1 0 0 1 1 1 2 1 1 1 1 -1 -0 0 -0 -1 -2 -1 -1 -2 -2 -2 -4 -4 -3 -2 -3 -5 -5 -4 -4 -4 -6
6 6 7 8 8 8 8 9 10 10 11 9 4 4 1 1 1 2 2 2 1 1 0 1 0 -0 1 -1 -2 -2 -3 -2 -2 -2 -3 -2 -5 -5 -4 -3 -6 -6 -4 -4 -4 -5 -6
6 5 5 7 7 7 7 8 8 9 9 9 5 4 -0 -0 1 1 1 0 0 -0 0 1 1 -0 -1 -1 -1 -0 -2 -0 -1 -1 -2 -4 -7 -4 -5 -6 -4 -5 -5 -6 -6 -6 -7
6 4 5 6 7 7 7 7 7 7 7 7 4 4 2 -0 -1 0 -1 -1 -2 -2 -2 0 -0 -1 -2 -1 -0 -3 -3 -1 -1 -2 -2 -2 -5 -7 -5 -6 -5 -8 -6 -6 -6 -7 -7
6 5 5 4 6 6 6 6 6 6 7 7 3 4 2 -3 -2 -1 -2 -2 -3 -5 -6 -3 -2 -3 -2 -2 -1 -3 -2 -2 -3 -3 -4 -4 -6 -6 -7 -8 -7 -7 -7 -6 -6 -7 -8
6 5 4 4 5 5 5 5 5 6 6 6 1 3 2 -4 -2 -2 -2 -2 -3 -4 -6 -3 -4 -3 -5 -5 -5 -6 -6 -7 -8 -6 -7 -8 -9 -8 -7 -7 -8 -7 -7 -8 -10 -8 -8
6 4 3 4 4 5 5 5 5 5 5 5 1 1 2 -1 -3 -2 -1 -1 -1 -1 -4 -5 -5 -5 -6 -8 -11 -10 -6 -10 -9 -8 -6 -8 -9 -10 -9 -5 -6 -6 -7 -7 -8 -8 -8
Height
856 855 853 851 848 846 843 840 836 832 828 824 820 816 813 809 806 802 800 797 794 792 790 788 788 788 789 794 802 798 796 794 792 790 790 789 790 791 794 794 793 794 791 789 789 788 788
858 856 854 852 849 846 843 840 837 833 829 825 820 816 812 809 805 801 799 796 793 792 790 789 788 788 790 803 803 800 798 795 794 793 792 791 793 792 794 795 796 794 793 793 788 785 788
859 858 856 853 851 847 844 840 837 833 829 825 820 816 812 808 805 801 798 795 794 793 791 791 790 791 794 808 806 802 798 796 796 795 795 794 794 795 796 798 795 793 797 794 791 796 798
860 858 856 854 851 848 844 841 837 833 829 824 820 816 812 808 804 801 797 794 794 794 794 794 793 793 806 808 805 801 798 796 795 795 795 794 795 796 798 797 796 797 799 801 803 807 805
861 859 857 855 852 848 845 841 837 833 829 824 820 815 811 807 803 800 796 795 794 795 795 795 795 795 809 807 806 805 801 798 795 796 794 795 795 803 806 813 813 815 816 814 807 823 822
862 860 858 855 852 849 845 841 838 833 829 824 819 815 811 807 804 800 798 797 796 797 796 796 798 804 811 819 812 807 801 798 798 796 798 801 812 826 837 834 836 846 836 827 832 835 832
863 861 859 856 853 849 845 842 838 834 830 825 820 816 812 808 806 800 797 798 801 803 802 810 811 813 815 816 815 812 806 803 802 809 820 817 835 853 856 849 842 840 844 849 839 836 837
863 862 859 856 853 849 846 842 838 834 830 825 820 816 812 808 806 803 799 803 809 812 816 813 813 814 816 817 821 821 814 814 820 827 824 834 851 849 848 849 847 848 849 854 837 836 835
864 862 860 857 853 850 846 842 838 834 830 825 820 816 812 809 807 806 806 811 812 813 817 817 817 820 825 825 842 839 829 826 833 838 843 846 855 849 850 852 850 849 856 855 853 837 833
864 862 860 857 854 850 846 842 838 834 829 825 820 817 813 809 811 811 813 814 814 815 827 829 825 828 828 830 845 844 838 840 843 851 846 855 857 856 855 855 857 850 849 848 841 842 847
865 862 860 856 853 850 847 843 838 834 829 824 820 817 813 810 812 813 815 813 815 816 840 834 833 835 839 843 849 858 847 845 856 857 850 864 864 859 861 863 858 855 847 844 840 842 847
865 863 860 856 853 850 846 842 838 833 829 824 821 818 815 813 813 815 813 813 814 822 843 842 840 845 846 850 854 864 859 851 856 858 860 864 861 864 865 860 857 852 851 842 839 843 873
865 863 860 857 854 851 846 842 838 833 829 824 821 820 816 816 817 814 814 815 825 831 842 852 856 855 860 865 865 868 871 874 879 877 883 869 865 863 863 863 854 855 860 872 884 887 856
865 863 860 857 854 851 846 842 837 832 828 823 820 819 818 817 813 813 814 817 821 852 860 859 859 860 869 874 874 876 875 884 881 884 891 891 882 870 867 867 867 860 862 884 932 892 883
863 862 860 858 855 851 846 841 836 832 827 822 820 819 819 816 813 812 817 852 862 867 867 866 861 866 877 873 874 880 886 890 888 887 887 897 887 873 865 868 869 866 867 865 877 877 872
862 861 860 858 855 851 846 841 837 831 826 821 819 819 821 815 813 813 833 861 869 870 869 865 867 876 883 887 885 888 892 889 885 886 883 889 901 876 870 869 870 872 871 883 868 891 869
861 860 859 857 854 850 846 842 837 832 826 822 819 823 822 816 816 825 859 866 869 871 870 874 876 882 886 889 886 887 893 891 889 887 887 887 893 886 876 883 889 883 889 882 880 877 904
860 860 858 857 854 850 846 843 838 832 827 822 823 830 824 817 837 860 870 866 866 872 873 874 878 881 884 887 888 888 890 888 889 888 890 888 894 907 888 880 885 889 897 895 889 900 881
858 858 857 856 853 851 847 843 839 834 829 825 834 837 827 821 850 869 870 874 876 875 879 877 881 881 884 886 890 888 889 886 888 887 888 890 907 918 893 885 896 898 890 891 886 879 892
857 855 855 854 852 850 846 843 839 834 830 827 836 841 844 844 863 868 871 875 878 879 882 881 885 886 888 889 892 892 894 887 887 886 881 886 896 906 919 900 891 892 896 894 897 906 912
856 855 854 853 851 849 846 843 839 835 833 831 840 855 857 866 868 870 871 874 877 880 880 884 886 889 892 895 894 895 895 894 887 886 893 896 901 896 894 896 890 893 896 897 897 900 900
853 854 854 852 850 849 845 842 839 835 833 836 849 855 863 871 869 873 876 881 881 883 884 887 888 889 891 894 894 899 895 897 895 894 896 898 900 895 894 887 889 899 898 895 896 893 897
851 852 852 852 850 848 846 844 840 836 834 837 846 851 852 875 875 873 880 878 880 883 888 884 887 891 890 889 890 891 891 892 894 900 900 899 905 907 900 887 894 907 907 900 897 894 901
848 851 852 849 849 848 846 844 842 839 837 837 843 848 859 877 876 876 878 879 883 883 886 887 888 889 888 885 886 887 889 892 895 895 897 898 912 909 906 895 920 908 899 898 896 896 903
844 848 851 850 848 848 846 844 842 840 840 840 845 847 858 879 877 878 880 882 885 888 889 888 889 890 888 886 884 883 891 886 893 895 896 899 917 909 911 917 899 904 905 907 905 898 905
841 846 848 849 847 846 847 845 844 841 840 842 847 849 854 871 886 882 888 888 893 896 895 889 888 888 888 886 882 895 904 887 893 898 895 896 907 921 913 922 904 916 908 903 904 904 902
837 842 846 848 847 847 847 846 846 845 842 842 848 849 854 877 887 886 888 890 891 900 908 898 895 895 892 894 889 899 896 893 903 904 908 907 914 921 925 933 916 912 907 900 904 905 900
834 839 843 847 847 847 849 849 846 846 844 844 850 851 853 875 887 886 888 890 890 894 908 899 903 899 903 910 910 913 915 916 922 916 922 928 936 930 924 921 924 911 907 913 918 907 903
831 836 841 845 846 848 847 849 848 848 846 847 852 855 856 865 888 889 890 891 891 891 894 898 903 904 905 917 926 924 911 928 928 927 914 927 930 941 931 907 909 909 911 912 911 907 901
Wind_Speed
13 14 15 17 18 20 21 22 22 23 23 23 23 23 21 22 22 20 17 18 13 10 11 10 8 5 3 6 4 11 11 10 7 6 5 3 2 1 2 1 4 4 4 5 7 12 5
13 14 15 17 18 19 20 21 22 23 24 24 25 24 20 21 21 16 17 16 9 8 8 9 8 5 2 7 9 15 15 11 11 8 6 6 2 2 3 2 1 3 4 8 9 10 4
13 14 15 17 18 20 21 23 24 24 25 25 25 24 21 22 20 17 18 14 6 6 7 8 7 13 17 6 13 19 16 9 8 7 4 3 3 4 2 5 3 5 5 6 6 11 8
12 14 15 17 19 20 22 23 24 25 25 26 26 24 21 22 17 18 20 9 3 5 6 7 7 7 5 10 18 26 24 8 10 5 4 5 4 1 1 4 6 4 3 3 10 18 9
12 13 15 16 18 20 22 23 25 25 26 26 26 23 21 22 16 19 13 7 5 6 6 6 6 6 3 5 18 27 23 10 10 10 9 4 4 5 8 5 4 7 3 5 2 12 9
11 12 14 17 19 21 23 24 25 26 26 27 25 22 22 22 15 18 7 15 16 8 5 5 9 6 8 5 8 30 27 16 5 8 6 8 6 5 5 8 4 6 5 5 1 9 12
11 12 15 17 19 21 23 24 25 26 26 28 25 20 23 20 14 17 3 3 5 6 13 5 1 7 3 4 31 25 25 9 8 9 6 6 11 5 7 6 4 2 3 4 3 8 7
10 12 14 17 18 20 22 24 25 26 26 28 23 18 22 16 8 17 10 7 2 2 7 6 7 7 11 5 9 25 26 7 8 6 8 7 6 5 4 10 6 5 4 5 7 14 7
10 12 14 16 18 21 23 25 26 26 27 29 23 19 22 11 4 11 18 7 3 1 5 4 4 5 6 23 7 16 14 6 8 7 12 8 4 8 9 12 15 4 5 10 12 11 11
9 11 14 16 18 21 23 25 26 27 27 27 19 19 21 6 2 6 6 7 2 1 4 8 7 7 11 7 6 21 16 5 7 6 3 8 6 7 12 12 10 6 9 14 16 10 1
10 11 13 15 18 21 23 25 26 26 26 25 16 16 18 13 3 4 6 0 2 1 4 6 5 4 10 8 4 20 14 6 4 6 2 2 6 11 11 11 9 5 15 15 16 10 2
10 11 13 16 18 21 23 25 26 25 25 24 12 15 17 6 5 8 3 4 3 5 3 3 4 6 5 7 4 7 13 7 2 4 5 3 3 3 3 9 5 10 9 10 2 1 3
10 11 13 16 18 21 24 25 25 25 25 22 7 13 17 12 7 8 1 3 5 5 3 5 4 5 5 7 6 5 11 15 6 5 6 6 3 3 3 6 10 14 8 4 5 5 2
10 11 13 16 18 21 24 25 25 24 25 20 6 2 20 16 8 3 3 4 4 2 3 3 4 3 6 8 4 7 3 4 7 4 2 4 4 6 8 3 6 8 3 2 3 2 5
9 10 13 15 19 22 24 25 26 25 27 18 6 1 15 26 10 2 4 6 2 2 3 6 1 5 4 3 2 4 4 3 3 5 4 4 4 5 7 3 4 6 3 2 4 3 2
8 9 11 14 18 21 23 24 25 23 26 16 3 2 14 19 8 4 6 4 2 3 3 2 3 5 5 5 6 5 4 4 2 4 0 1 3 2 7 5 5 2 4 4 1 3 4
7 8 10 13 17 21 23 23 24 24 26 13 2 3 20 12 6 7 4 3 4 4 3 5 2 3 3 3 1 1 4 1 4 6 3 1 2 5 2 3 2 4 4 3 2 1 2
6 7 9 13 17 19 21 23 23 23 24 10 3 3 20 9 5 3 3 2 3 3 6 5 4 3 1 1 3 2 2 3 6 3 4 2 1 3 5 1 4 4 1 1 1 5 2
5 5 7 12 15 18 20 21 22 21 20 4 3 1 12 7 4 3 3 4 4 3 4 3 3 4 2 2 1 2 2 2 4 4 2 2 2 3 7 2 4 4 4 3 3 1 1
6 5 6 10 13 16 18 19 19 18 15 3 3 3 5 5 2 6 4 2 3 3 3 4 3 4 4 3 4 1 3 1 4 3 13 3 1 4 4 8 2 2 3 6 3 2 4
8 5 5 8 11 14 15 16 17 17 12 2 4 2 2 2 4 5 4 2 3 2 2 4 3 4 2 2 2 2 2 4 3 7 7 3 1 2 6 5 2 1 1 4 3 2 3
9 6 4 6 9 11 13 14 15 15 8 7 3 3 4 2 2 4 4 2 2 2 2 2 2 1 1 3 3 2 2 1 1 5 6 3 3 4 4 3 4 2 4 2 6 6 6
12 8 4 4 7 9 11 13 13 12 6 5 4 3 4 3 2 3 1 3 3 6 3 3 2 1 0 3 5 6 6 4 2 1 2 2 2 2 4 1 1 3 3 5 8 6 3
14 9 5 2 4 6 9 10 12 12 11 7 5 4 4 2 3 2 2 2 3 2 4 2 2 1 2 4 2 3 2 3 3 3 3 2 1 2 3 4 3 3 5 5 10 2 3
17 11 7 2 1 3 6 8 9 11 12 10 7 4 3 3 3 4 4 4 4 4 2 1 1 1 8 3 1 2 3 2 3 3 2 2 3 2 0 2 1 3 4 7 7 9 5
18 15 11 6 3 2 4 6 7 7 11 14 15 10 7 6 2 2 3 2 3 1 3 2 2 5 4 0 1 2 2 1 1 4 3 3 5 3 2 1 3 1 7 10 6 4 7
20 16 13 9 6 4 3 5 6 10 12 8 10 9 9 4 2 2 2 3 4 3 1 3 5 6 3 2 1 1 1 1 1 1 3 3 3 1 3 2 5 4 11 8 3 5 16
21 17 16 11 8 5 4 4 7 9 8 6 11 6 7 3 3 3 3 2 3 3 3 2 3 3 3 3 2 1 2 1 3 1 2 3 2 1 1 2 5 6 4 2 4 9 12
23 21 18 13 10 7 6 5 7 7 8 12 11 19 19 13 3 14 16 13 9 3 4 1 3 2 3 3 1 2 1 2 3 1 2 1 4 3 6 3 2 5 1 1 7 10 9
Wind_Direction
37 33 28 24 22 19 15 13 11 9 7 5 2 1 0 358 355 353 358 353 1 14 17 36 54 66 70 52 47 350 356 356 355 5 34 22 35 140 254 244 326 227 281 322 301 296 258
33 29 26 22 21 17 14 11 8 7 4 2 0 358 359 357 355 357 354 354 6 23 36 47 50 65 36 73 349 355 358 350 9 11 17 35 19 304 284 276 175 342 302 288 293 286 302
31 26 21 19 17 13 12 10 9 7 5 2 359 357 358 357 356 354 351 347 5 35 55 88 74 74 64 64 25 24 10 22 355 359 0 356 4 25 338 316 330 276 296 333 340 347 34
29 24 21 17 14 12 10 9 8 6 3 2 359 357 357 357 358 354 344 347 60 58 66 56 56 59 89 57 35 17 9 3 1 345 316 328 344 61 18 316 341 307 56 4 50 23 355
25 21 18 15 12 10 9 9 7 4 3 2 359 357 357 354 359 355 9 65 72 80 66 43 44 85 47 353 21 9 12 350 346 357 350 340 37 59 10 353 350 17 342 343 2 46 9
20 16 14 13 11 9 10 7 6 3 1 360 358 358 356 356 6 358 64 92 75 63 40 51 35 59 12 19 2 5 10 23 26 347 15 31 37 50 22 23 336 320 319 341 60 352 356
14 12 11 11 9 8 8 6 4 2 0 360 358 359 356 357 16 2 78 151 23 359 31 91 351 117 98 188 41 4 354 357 28 53 11 31 54 56 32 13 324 293 278 308 8 2 353
10 9 9 9 7 6 5 5 4 2 360 359 359 0 358 352 21 25 46 69 87 135 73 53 72 73 41 78 19 358 3 51 36 32 345 46 76 37 44 26 2 15 358 346 312 348 335
5 3 5 5 4 5 5 4 2 1 0 358 359 1 360 356 15 26 58 56 56 83 99 29 58 39 70 72 32 340 5 11 37 41 53 80 7 55 30 30 11 347 28 335 302 308 250
359 359 3 2 2 3 3 3 2 0 360 358 1 4 2 13 63 18 47 5 58 55 83 341 357 5 357 118 68 9 7 8 42 16 40 76 360 45 31 24 357 320 353 317 304 320 321
353 357 358 359 0 1 2 2 0 358 358 358 1 8 6 39 53 53 316 350 133 347 18 337 21 40 25 84 290 359 349 31 56 7 33 47 46 30 30 350 334 294 311 296 298 290 19
344 351 353 356 359 359 1 1 359 356 356 356 5 15 20 20 44 2 358 144 135 52 254 1 37 6 40 33 66 59 18 39 79 67 48 72 353 48 350 325 308 305 329 308 317 94 52
338 347 350 354 357 359 359 358 356 354 353 353 2 29 23 25 335 336 121 107 37 108 346 354 347 5 80 5 37 32 43 47 44 9 16 331 27 2 35 347 325 351 347 352 5 10 285
334 343 348 352 355 357 357 355 354 353 350 350 341 10 16 5 350 354 157 51 79 58 7 5 3 34 58 14 47 13 46 46 21 31 37 18 343 20 344 336 308 315 352 96 242 283 282
328 339 346 350 354 355 354 352 353 354 351 350 342 272 8 353 360 19 75 49 64 4 306 339 353 62 29 356 26 68 52 37 28 12 90 10 287 332 353 351 0 325 7 263 246 221 257
323 334 344 349 352 351 352 353 352 354 353 352 357 55 10 350 3 54 69 111 94 18 342 27 69 42 21 4 32 30 14 328 10 29 210 107 284 277 327 2 0 39 318 11 3 338 310
312 328 343 347 349 351 352 353 353 354 355 354 23 49 357 356 21 50 92 104 112 44 32 17 62 59 70 20 353 60 350 290 350 337 24 101 139 298 12 41 278 354 3 333 250 300 193
304 327 338 345 351 350 351 354 354 354 358 2 44 29 355 7 51 42 55 68 87 9 23 52 83 77 81 27 14 74 93 349 358 315 344 290 198 279 274 229 143 109 278 285 289 311 288
283 310 332 343 350 351 352 355 356 355 0 3 79 313 358 14 81 69 65 60 65 40 34 39 60 47 27 14 350 78 49 14 352 349 331 305 339 347 346 29 355 76 357 306 251 278 236
260 283 320 341 349 352 354 355 355 356 0 40 82 24 353 41 45 107 120 101 111 36 61 65 71 56 44 35 26 107 357 328 330 333 14 6 177 162 211 250 226 238 28 355 27 55 292
246 264 314 342 347 348 355 356 355 357 354 11 29 140 175 19 20 89 90 95 115 86 87 39 78 66 23 329 2 21 15 330 332 11 6 60 259 238 262 261 110 85 104 35 8 235 265
229 247 296 329 340 345 356 1 1 0 3 62 98 123 35 79 96 70 17 62 125 116 49 56 85 14 273 218 182 223 33 233 313 344 358 359 286 333 285 194 172 183 28 278 352 326 277
219 238 256 316 338 350 0 6 11 12 13 94 98 84 100 334 66 94 188 150 138 127 39 89 144 91 248 239 214 216 201 224 183 96 281 323 317 346 280 259 90 273 351 332 311 318 283
216 222 242 261 338 352 10 17 21 28 42 97 114 116 85 64 75 95 111 93 113 126 142 135 90 63 237 331 275 101 159 219 220 271 194 278 4 159 271 356 314 189 36 328 318 215 31
217 200 225 240 307 13 25 31 39 45 50 94 106 95 107 93 103 93 94 105 81 37 62 118 30 261 308 291 62 79 17 113 55 101 60 74 104 322 354 225 265 223 24 337 336 303 49
213 197 213 209 192 105 53 48 47 68 77 86 76 82 93 117 321 39 89 56 116 71 1 357 5 331 5 319 66 125 172 211 196 328 46 79 76 111 350 297 269 239 321 306 286 261 352
207 200 196 191 178 133 93 75 71 78 83 98 80 92 93 102 13 7 124 155 113 94 143 318 342 344 344 353 78 119 186 184 198 332 335 344 2 67 324 272 287 344 311 307 345 316 326
201 191 179 178 161 142 123 99 94 89 92 122 70 96 106 101 43 25 40 106 96 87 120 282 27 337 18 44 89 227 114 219 76 241 187 173 115 293 318 287 287 12 359 58 255 300 303
193 178 171 172 154 152 135 121 120 116 107 106 90 90 100 85 127 87 73 65 67 95 136 59 182 210 201 90 1 104 71 71 157 270 46 1 175 202 172 247 49 22 171 343 318 299 309